Location: Peebles
(55.6412°N, 3.1714°W)
Time: 18:26:41
(UTC+01:00)

USA 281 - Pass Details

Date: 26 January 2022
Orbit: 1070 x 1089 km, 106.0° (Epoch: 25 March)

Event Time Altitude Azimuth Distance (km) Brightness Sun altitude
Rises 01:35:01 0° 30° (NNE) 3,905 6.8 -50.8°
Reaches altitude 10° 01:37:41 10° 37° (NE) 2,946 6.0 -50.6°
Enters shadow 01:38:39 15° 40° (NE) 2,612 5.6 -50.6°
